Flag for Norway Weather past 2 weeks in Melhus, Norway

Now
63 °F

Passing clouds.


Feels Like: 63 °F
Forecast: 44 / 74 °F
Wind: 6 mph from Northwest

Location: Trondheim / Vaernes

Current Time: Aug 3, 2015 at 3:38:25 PM

Latest Report: Aug 3, 2015 at 2:50 PM


Visibility: N/A

Pressure: 30.12 "Hg

Humidity: 52%

Dew point: 45 °F

Location of MelhusLocation

Historic Weather in Melhus — Graph

°F

Melhus temperature yesterday

Maximum temperature yesterday: 59 °F (at 12:20 PM)
Minimum temperature yesterday: 45 °F (at 3:50 AM)
Average temperature yesterday: 53 °F

Past Weeks' High & Low Weather Summary

 TemperatureHumidityPressure
High68 °F (Jul 21, 12:50 PM)100% (Jul 21, 4:20 AM)30.15 "Hg (Jul 21, 4:20 AM)
Low45 °F (Jul 21, 4:20 AM)40% (Aug 1, 5:50 PM)29.36 "Hg (Jul 27, 3:50 AM)
Average56 °F76%29.72 "Hg
* Reported Jul 19 2:20 PM — Aug 3 2:20 PM, Melhus, Weather by CustomWeather, © 2015

Note: Actual official high and low records may vary slightly from our data, if they occured in-between our weather recording intervals... More about our weather records

Advertising

Melhus weather history for previous 24 hours

 ConditionsComfort  
Time TempWeatherWind HumidityBarometerVisibility
2:20 PM
Mon, Aug 3
63 °FScattered clouds.3 mph49%30.12 "HgN/A
1:50 PM61 °FScattered clouds.3 mph52%30.12 "HgN/A
1:20 PM61 °FScattered clouds.2 mph52%30.12 "HgN/A
12:50 PM59 °FPartly sunny.6 mph59%30.15 "HgN/A
12:20 PM59 °FScattered clouds.6 mph63%30.15 "HgN/A
11:50 AM57 °FScattered clouds.6 mph67%30.15 "HgN/A
11:20 AM57 °FScattered clouds.6 mph67%30.15 "HgN/A
10:50 AM57 °FScattered clouds.6 mph67%30.15 "HgN/A
10:20 AM55 °FScattered clouds.5 mph82%30.15 "HgN/A
9:50 AM55 °FScattered clouds.5 mph77%30.15 "HgN/A
9:20 AM55 °FScattered clouds.2 mph82%30.15 "HgN/A
8:50 AM54 °FScattered clouds.1 mph88%30.15 "HgN/A
8:20 AM52 °FScattered clouds.1 mph88%30.15 "HgN/A
7:50 AM52 °FBroken clouds.3 mph88%30.15 "HgN/A
7:20 AM52 °FScattered showers. Partly sunny.No wind88%30.15 "HgN/A
6:50 AM52 °FDrizzle. Partly sunny.3 mph88%30.15 "HgN/A
6:20 AM52 °FScattered showers. Broken clouds.6 mph88%30.15 "HgN/A
5:50 AM52 °FScattered showers. Broken clouds.6 mph88%30.12 "HgN/A
4:50 AM50 °FPassing clouds.9 mph94%30.15 "HgN/A
3:50 AM52 °FPassing clouds.8 mph82%30.12 "HgN/A
2:50 AM54 °FPassing clouds.8 mph82%30.12 "HgN/A
1:50 AM54 °FScattered showers. Passing clouds.10 mph82%30.12 "HgN/A
12:50 AM54 °FPassing clouds.14 mph82%30.09 "HgN/A
12:20 AM54 °FPassing clouds.12 mph77%30.09 "HgN/A
11:50 PM
Sun, Aug 2
52 °FPassing clouds.12 mph82%30.09 "HgN/A
11:20 PM54 °FPassing clouds.12 mph77%30.09 "HgN/A
10:50 PM55 °FScattered clouds.16 mph77%30.07 "HgN/A
10:20 PM55 °FScattered clouds.18 mph77%30.07 "HgN/A
9:50 PM55 °FScattered clouds.20 mph72%30.04 "HgN/A
9:20 PM55 °FScattered clouds.21 mph77%30.04 "HgN/A
8:50 PM55 °FScattered clouds.21 mph77%30.04 "HgN/A
8:20 PM57 °FScattered clouds.21 mph72%30.01 "HgN/A
7:50 PM57 °FScattered clouds.22 mph72%30.01 "HgN/A
7:20 PM57 °FBroken clouds.22 mph72%30.01 "HgN/A
6:50 PM55 °FBroken clouds.23 mph77%30.01 "HgN/A
6:20 PM55 °FDrizzle. Broken clouds.23 mph77%29.98 "HgN/A
5:50 PM55 °FDrizzle. Broken clouds.23 mph77%29.98 "HgN/A
5:20 PM57 °FDrizzle. Broken clouds.25 mph77%29.98 "HgN/A
4:50 PM57 °FDrizzle. Broken clouds.25 mph77%29.95 "HgN/A
4:20 PM57 °FBroken clouds.23 mph77%29.95 "HgN/A
3:50 PM57 °FBroken clouds.24 mph77%29.95 "HgN/A
3:20 PM57 °FBroken clouds.23 mph77%29.92 "HgN/A
Weather by CustomWeather, © 2015

See weather overviewHow to use our weather pages